When you browse on this site, cookies collect data to enhance your experience and personalize the content and advertising you see.
Visit our Privacy Policy to learn more. By continuing to use the site, you agree to this use of cookies and data.
  • In Hungary
  • List of Countries
  • For 7 days
  • Water Temperature
  • Satellite Maps
  • Weather Map
  • News
  • Weather Widgets
  • user-avatar
    Login

    Hourly Weather Kachkarivka

    Today, 17 February, Sunday

    Time Temperature Precipitation Wind Pressure Humidity
    00:00 +2°C° 0 mm 3 mps 761 mmHg 89%
    01:00 +2°C° 0 mm 3 mps 761 mmHg 89%
    02:00 +1°C° 0 mm 3 mps 760 mmHg 92%
    03:00 +2°C° 0 mm 3 mps 760 mmHg 91%
    04:00 +2°C° 0 mm 3 mps 760 mmHg 91%
    05:00 +2°C° 0 mm 3 mps 760 mmHg 90%
    06:00 +2°C° 0 mm 3 mps 760 mmHg 91%
    07:00 0°C° 0 mm 4 mps 759 mmHg 92%
    08:00 +1°C° 0 mm 4 mps 759 mmHg 91%
    09:00 +3°C° 0 mm 4 mps 759 mmHg 83%
    10:00 +5°C° 0 mm 5 mps 758 mmHg 75%
    11:00 +6°C° 0 mm 5 mps 758 mmHg 67%
    12:00 +8°C° 0 mm 6 mps 758 mmHg 63%
    13:00 +9°C° 0 mm 6 mps 757 mmHg 59%
    14:00 +10°C° 0 mm 7 mps 756 mmHg 55%
    15:00 +9°C° 0 mm 6 mps 756 mmHg 58%
    16:00 +9°C° 0 mm 6 mps 756 mmHg 61%
    17:00 +8°C° 0 mm 6 mps 755 mmHg 64%
    18:00 +7°C° 0 mm 6 mps 755 mmHg 67%
    19:00 +5°C° 0 mm 6 mps 755 mmHg 70%
    20:00 +4°C° 0 mm 6 mps 756 mmHg 73%
    21:00 +3°C° 0 mm 5 mps 756 mmHg 75%
    22:00 +3°C° 0 mm 5 mps 756 mmHg 77%
    23:00 +2°C° 0 mm 5 mps 756 mmHg 79%

    Tomorrow, 18 February, Monday

    Time Temperature Precipitation Wind Pressure Humidity
    00:00 +2°C° 0 mm 5 mps 756 mmHg 82%
    01:00 +1°C° 0 mm 5 mps 756 mmHg 85%
    02:00 +1°C° 0 mm 5 mps 756 mmHg 87%
    03:00 +1°C° 0 mm 6 mps 757 mmHg 85%
    04:00 -1°C° 0 mm 6 mps 757 mmHg 82%
    05:00 -1°C° 0 mm 6 mps 757 mmHg 79%
    06:00 -1°C° 0 mm 6 mps 757 mmHg 78%
    07:00 -1°C° 0 mm 6 mps 758 mmHg 77%
    08:00 -2°C° 0 mm 6 mps 758 mmHg 75%
    09:00 -1°C° 0 mm 6 mps 759 mmHg 70%
    10:00 +1°C° 0 mm 6 mps 759 mmHg 65%
    11:00 +2°C° 0 mm 6 mps 759 mmHg 60%
    12:00 +2°C° 0 mm 6 mps 759 mmHg 56%
    13:00 +3°C° 0 mm 6 mps 759 mmHg 51%
    14:00 +3°C° 0 mm 6 mps 759 mmHg 47%
    15:00 +2°C° 0 mm 6 mps 759 mmHg 50%
    16:00 +2°C° 0 mm 5 mps 760 mmHg 53%
    17:00 +1°C° 0 mm 5 mps 760 mmHg 55%
    18:00 0°C° 0 mm 5 mps 760 mmHg 60%
    19:00 -1°C° 0 mm 5 mps 761 mmHg 65%
    20:00 -1°C° 0 mm 4 mps 761 mmHg 70%
    21:00 -2°C° 0 mm 4 mps 762 mmHg 72%
    22:00 -2°C° 0 mm 4 mps 762 mmHg 74%
    23:00 -3°C° 0 mm 4 mps 762 mmHg 77%

    Day after tomorrow, 19 February, Tuesday

    Time Temperature Precipitation Wind Pressure Humidity
    00:00 -2°C° 0 mm 3 mps 763 mmHg 75%
    01:00 -2°C° 0 mm 3 mps 763 mmHg 73%
    02:00 -4°C° 0 mm 3 mps 763 mmHg 71%
    03:00 -4°C° 0 mm 3 mps 763 mmHg 71%
    04:00 -4°C° 0 mm 3 mps 764 mmHg 70%
    05:00 -3°C° 0 mm 2 mps 764 mmHg 70%
    06:00 -4°C° 0 mm 3 mps 764 mmHg 69%
    07:00 -4°C° 0 mm 3 mps 764 mmHg 68%
    08:00 -4°C° 0 mm 3 mps 765 mmHg 66%
    09:00 -2°C° 0 mm 3 mps 765 mmHg 60%
    10:00 -1°C° 0 mm 2 mps 765 mmHg 53%
    11:00 +1°C° 0 mm 2 mps 765 mmHg 46%
    12:00 +1°C° 0 mm 2 mps 765 mmHg 43%
    13:00 +2°C° 0 mm 2 mps 765 mmHg 40%
    14:00 +4°C° 0 mm 1 mps 764 mmHg 37%
    15:00 +3°C° 0 mm 1 mps 764 mmHg 40%
    16:00 +3°C° 0 mm 1 mps 764 mmHg 42%
    17:00 +2°C° 0 mm 1 mps 764 mmHg 44%
    18:00 +2°C° 0 mm 1 mps 764 mmHg 48%
    19:00 -1°C° 0 mm 2 mps 764 mmHg 52%
    20:00 -2°C° 0 mm 2 mps 764 mmHg 56%
    21:00 -2°C° 0 mm 3 mps 764 mmHg 60%
    22:00 -2°C° 0 mm 3 mps 764 mmHg 64%
    23:00 -4°C° 0 mm 3 mps 763 mmHg 69%

    20 February, Wednesday

    Time Temperature Precipitation Wind Pressure Humidity
    00:00 -4°C° 0 mm 3 mps 763 mmHg 70%
    01:00 -4°C° 0 mm 3 mps 763 mmHg 70%
    02:00 -4°C° 0 mm 3 mps 763 mmHg 71%
    03:00 -4°C° 0 mm 3 mps 762 mmHg 72%
    04:00 -4°C° 0 mm 4 mps 762 mmHg 73%
    05:00 -4°C° 0 mm 4 mps 762 mmHg 74%
    06:00 -4°C° 0 mm 4 mps 761 mmHg 72%
    07:00 -4°C° 0 mm 4 mps 761 mmHg 71%
    08:00 -3°C° 0 mm 4 mps 761 mmHg 70%
    09:00 -1°C° 0 mm 4 mps 761 mmHg 67%
    10:00 0°C° 0 mm 4 mps 761 mmHg 65%
    11:00 +2°C° 0 mm 5 mps 760 mmHg 63%
    12:00 +3°C° 0 mm 5 mps 760 mmHg 62%
    13:00 +5°C° 0 mm 5 mps 760 mmHg 62%
    14:00 +6°C° 0 mm 5 mps 759 mmHg 62%
    15:00 +5°C° 0 mm 5 mps 759 mmHg 67%
    16:00 +4°C° 0 mm 4 mps 759 mmHg 72%
    17:00 +4°C° 0 mm 4 mps 758 mmHg 78%
    18:00 +4°C° 0 mm 4 mps 758 mmHg 81%
    19:00 +3°C° 0 mm 4 mps 758 mmHg 83%
    20:00 +3°C° 0 mm 4 mps 758 mmHg 86%
    21:00 +3°C° 0.1 mm 4 mps 758 mmHg 88%
    22:00 +3°C° 0.1 mm 4 mps 758 mmHg 90%
    23:00 +3°C° 0.1 mm 4 mps 758 mmHg 92%

    21 February, Thursday

    Time Temperature Precipitation Wind Pressure Humidity
    00:00 +3°C° 0 mm 4 mps 758 mmHg 93%
    01:00 +3°C° 0 mm 4 mps 757 mmHg 94%
    02:00 +3°C° 0 mm 4 mps 757 mmHg 95%
    03:00 +3°C° 0 mm 4 mps 757 mmHg 94%
    04:00 +1°C° 0 mm 4 mps 757 mmHg 92%
    05:00 +1°C° 0 mm 3 mps 757 mmHg 91%
    06:00 +1°C° 0 mm 4 mps 757 mmHg 88%
    07:00 +1°C° 0 mm 5 mps 757 mmHg 85%
    08:00 +1°C° 0 mm 5 mps 757 mmHg 82%
    09:00 +2°C° 0 mm 6 mps 757 mmHg 74%
    10:00 +3°C° 0 mm 6 mps 757 mmHg 66%
    11:00 +4°C° 0 mm 7 mps 757 mmHg 58%
    12:00 +5°C° 0 mm 7 mps 756 mmHg 56%
    13:00 +5°C° 0 mm 8 mps 756 mmHg 54%
    14:00 +5°C° 0 mm 8 mps 756 mmHg 52%
    15:00 +4°C° 0 mm 8 mps 756 mmHg 54%
    16:00 +4°C° 0 mm 8 mps 756 mmHg 55%
    17:00 +2°C° 0 mm 8 mps 756 mmHg 57%
    18:00 +2°C° 0 mm 8 mps 756 mmHg 56%
    19:00 +1°C° 0 mm 8 mps 757 mmHg 56%
    20:00 0°C° 0 mm 8 mps 757 mmHg 55%
    21:00 -1°C° 0 mm 7 mps 758 mmHg 57%
    22:00 -3°C° 0 mm 6 mps 758 mmHg 59%
    23:00 -4°C° 0 mm 5 mps 759 mmHg 60%

    22 February, Friday

    Time Temperature Precipitation Wind Pressure Humidity
    00:00 -4°C° 0 mm 5 mps 759 mmHg 58%
    01:00 -5°C° 0 mm 5 mps 760 mmHg 56%
    02:00 -5°C° 0 mm 5 mps 760 mmHg 54%
    03:00 -5°C° 0 mm 5 mps 760 mmHg 55%
    04:00 -5°C° 0 mm 5 mps 760 mmHg 55%
    05:00 -5°C° 0 mm 5 mps 761 mmHg 55%
    06:00 -5°C° 0 mm 5 mps 761 mmHg 55%
    07:00 -5°C° 0 mm 5 mps 761 mmHg 54%
    08:00 -5°C° 0 mm 5 mps 761 mmHg 54%
    09:00 -4°C° 0 mm 5 mps 761 mmHg 52%
    10:00 -4°C° 0 mm 5 mps 761 mmHg 49%
    11:00 -2°C° 0 mm 5 mps 761 mmHg 47%
    12:00 -2°C° 0 mm 5 mps 761 mmHg 47%
    13:00 -3°C° 0 mm 6 mps 761 mmHg 47%
    14:00 -3°C° 0 mm 6 mps 760 mmHg 47%
    15:00 -3°C° 0 mm 6 mps 760 mmHg 49%
    16:00 -4°C° 0 mm 6 mps 761 mmHg 51%
    17:00 -4°C° 0 mm 6 mps 761 mmHg 53%
    18:00 -5°C° 0 mm 6 mps 761 mmHg 54%
    19:00 -5°C° 0 mm 6 mps 762 mmHg 56%
    20:00 -6°C° 0 mm 6 mps 762 mmHg 57%
    21:00 -6°C° 0 mm 6 mps 763 mmHg 57%
    22:00 -8°C° 0 mm 6 mps 763 mmHg 57%
    23:00 -8°C° 0 mm 6 mps 764 mmHg 57%
    Show more